STARLINK-35846

Last updated on Sun Dec 07 2025 00:02:05 GMT+0000 (Coordinated Universal Time)

1 66367U 25254V 25340.58335648 -.00129679 00000+0 -23582-2 0 9999 2 66367 53.1600 305.9619 0001552 91.5094 355.2158 15.49358217 5884
UTC large
Height (km)
Speed (km/s)
/
Latitude / Longitude
Inclination (degrees)
Orbital Period (minutes)
Azimuth
Elevation
Range (km)
Doppler Factor

Next 0 passes for location: London (51.5072 / 0.1276)

Sorry there are no passes over London.